Regional Weather Roundup
Issued by NWS

Home | Current Version | Previous Version | Graphics & Text | Print | Product List | Glossary On
Versions: 1 2 3 4 5 6 7 8 9 10 11 12 13 14 15 16 17 18 19 20 21 22 23 24 25 26 27
000
ASUS45 KTFX 212310
RWRMT
MONTANA REGIONAL WEATHER ROUNDUP
NATIONAL WEATHER SERVICE GREAT FALLS MT
500 PM MDT MON AUG 21 2017

NOTE: "FAIR" INDICATES FEW OR NO CLOUDS BELOW 12000 FEET WITH NO
SIGNIFICANT WEATHER AND/OR OBSTRUCTIONS TO VISIBILITY.

MTZ001>007-043-220000-
WEST OF THE DIVIDE

CITY           SKY/WX    TMP DP  RH WIND       PRES   REMARKS
KALISPELL      SUNNY     79  42  26 S8        30.13F
MISSOULA       SUNNY     83  34  17 E3        30.12F
BUTTE          SUNNY     78  30  17 VRB7      30.23F
MULLAN PASS    SUNNY     72  36  26 VRB6      30.29F
ANACONDA         N/A     75  39  27 N9        30.20F
DEER LODGE       N/A     75  36  23 NE7       30.21F
EUREKA           N/A     82  39  21 MISG      30.11F
HAMILTON         N/A     79  37  22 NW6       30.14F
LIBBY            N/A     84  39  20 NW5       30.09F
RONAN            N/A     81  38  21 W2        30.19S
$$

MTZ008-052>055-220000-
SOUTHWEST MONTANA

CITY           SKY/WX    TMP DP  RH WIND       PRES   REMARKS
BOZEMAN        SUNNY     80  30  16 W6        30.18F
DILLON         SUNNY     78  36  21 NW3       30.19F
W YELLOWSTONE  SUNNY     75  28  17 SW8G15    30.28S
ENNIS          SUNNY     79  28  15 N9        30.25
THREE FORKS      N/A     80  34  19 N1        30.15S
$$

MTZ009-010-012-014-046-048-049-054-220000-
EAST SLOPES AND CENTRAL MONTANA

CITY           SKY/WX    TMP DP  RH WIND       PRES   REMARKS
CUT BANK       MOSUNNY   75  33  21 VRB5      30.16F
GREAT FALLS    SUNNY     77  34  21 E6        30.16F
MALMSTROM AFB  SUNNY     76  34  21 W3        30.16S
HELENA         SUNNY     83  36  18 NE8       30.14S
AUGUSTA          N/A     76  36  23 E6        30.17F
BOWMANS CRNR     N/A     76  34  21 E9        30.15F
CHOTEAU          N/A     79  36  21 S6        30.17F
FAIRFIELD        N/A     76  35  22 S5        30.15F
POWER            N/A     76  33  21 W5        30.16F
RAYNESFORD       N/A     76  34  21 N6        30.17F
ULM              N/A     78  35  20 N5        30.15F
$$

MTZ011-013-016-021-045-047-050-051-220000-
NORTH CENTRAL MONTANA

CITY           SKY/WX    TMP DP  RH WIND       PRES   REMARKS
HAVRE          SUNNY     79  35  20 VRB6      30.13F
LEWISTOWN      SUNNY     76  34  21 NW8       30.18F
N BAR RANCH      N/A     73  30  20 VRB6      30.22F
CHINOOK          N/A     77  36  22 CALM      30.14S
DENTON           N/A     76  34  21 NW3       30.14S
GEYSER           N/A     75  34  22 NE9       30.18S
GRASS RANGE      N/A     77  32  18 NE15      30.14F
JUDITH GAP       N/A     74  36  24 N14G20    30.19F
WINIFRED         N/A     76  33  20 NE8       30.17S
$$

MTZ017>020-022>027-061-062-220000-
NORTHEAST MONTANA

CITY           SKY/WX    TMP DP  RH WIND       PRES   REMARKS
GLASGOW        SUNNY     76  34  21 NW9       30.13F
JORDAN           N/A     76  33  21 VRB3      30.15
SIDNEY         SUNNY     76  37  24 N13       30.11S
WOLF POINT     MOSUNNY   80  32  17 NW14G22   30.11F
MALTA          SUNNY     77  36  22 N5        30.14S
PLENTYWOOD       N/A     72  30  21 NW15G23   30.11R
$$

MTZ028>42-056>058-220000-
SOUTHCENTRAL AND SOUTHEAST MONTANA

CITY           SKY/WX    TMP DP  RH WIND       PRES   REMARKS
BAKER          SUNNY     77  34  21 N14       30.15S
BILLINGS       MOSUNNY   81  29  15 E7        30.15F
LIVINGSTON     SUNNY     80  32  17 W6        30.17F
MILES CITY     SUNNY     80  31  16 W6        30.13S
BIG TIMBER     SUNNY     79  30  17 NE7       30.19F
HARLOWTON        N/A     77  32  19 MISG      30.17F
LAUREL           N/A     79  33  18 NE2       30.14F
$$

REGIONAL REPORTS...DAKOTAS

CITY           SKY/WX    TMP DP  RH WIND       PRES   REMARKS
WILLISTON      SUNNY     76  37  24 N15G32    30.10S
MINOT          SUNNY     74  37  26 NW22      30.03R
DICKINSON      SUNNY     75  41  29 NW13G23   30.09R
BEACH            N/A     73  36  25 N17G23    30.16S
CROSBY           N/A     73  34  23 NW17      30.09S
TIOGA            N/A     72  34  25 N20       30.11R
WATFORD CITY     N/A     73  36  25 NW18      30.09S
BISMARCK       SUNNY     76  43  30 NW18G30   30.03R
GRAND FORKS    PTSUNNY   75  57  53 NW7       29.88S
FARGO          MOSUNNY   76  59  55 NW14      29.87R
BUFFALO SD       N/A     78  37  22 N20G25    30.07R
RAPID CITY     SUNNY     79  39  23 N20G25    30.13R
$$

REGIONAL REPORTS...WYOMING/IDAHO/WASHINGTON

CITY           SKY/WX    TMP DP  RH WIND       PRES   REMARKS
GILLETTE       SUNNY     78  31  17 VRB6      30.18S
SHERIDAN       SUNNY     80  31  16 CALM      30.17S
BUFFALO WY     SUNNY     78  30  17 NW3       30.23S
CODY           SUNNY     74  39  28 N10       30.21S
YELLOWSTONE LA   N/A     67  39  35 VRB3      30.37S
IDAHO FALLS    SUNNY     82  33  17 S7        30.17F
SALMON         SUNNY     83  35  18 NW5       30.12F
BOISE          SUNNY     87  38  17 W8        30.07F
SPOKANE        PTSUNNY   85  40  20 VRB7      30.11F
$$

REGIONAL REPORTS...ALBERTA

CITY           SKY/WX    TMP DP  RH WIND       PRES   REMARKS
EDMONTON       PTSUNNY   70  48  46 W5        30.07S
CALGARY        CLOUDY    72  39  30 E3        30.13S
LETHBRIDGE     PTSUNNY   75  39  27 CALM      30.12F
MEDICINE HAT   PTSUNNY   73  39  29 VRB2      30.13S
$$

REGIONAL REPORTS...SASKATCHEWAN

CITY           SKY/WX    TMP DP  RH WIND       PRES   REMARKS
SWIFT CURRENT  SUNNY     70  30  23 NW8       30.15S
REGINA         PTSUNNY   72  34  25 N17       30.09S
SASKATOON      PTSUNNY   72  37  28 NW16G22   30.10S
$$




USA.gov is the U.S. government's official web portal to all federal, state and local government web resources and services.